Time,TemperatureF,DewpointF,PressureIn,WindDirection,WindDirectionDegrees,WindSpeedMPH,WindSpeedGustMPH,Humidity,HourlyPrecipIn,Conditions,Clouds,dailyrainin,SolarRadiationWatts/m^2,SoftwareType,DateUTC
2013-06-01 00:21:00,57.0,41.0,-100.00,SE,129,0.0,5.0,56,0.00,,,0.00,0.000000,,2013-06-01 07:21:00,
2013-06-01 00:31:00,57.0,41.0,-100.00,SE,129,0.0,5.0,56,0.00,,,0.00,0.000000,,2013-06-01 07:31:00,
2013-06-01 00:42:00,57.0,41.0,-100.00,SE,129,0.0,5.0,56,0.00,,,0.00,0.000000,,2013-06-01 07:42:00,
2013-06-01 00:52:00,57.0,41.0,-100.00,SE,129,0.0,5.0,56,0.00,,,0.00,0.000000,,2013-06-01 07:52:00,
2013-06-01 01:21:00,55.0,41.0,-100.00,SE,126,1.0,5.0,58,0.00,,,0.00,0.000000,,2013-06-01 08:21:00,
2013-06-01 01:32:00,55.0,41.0,-100.00,SE,126,1.0,5.0,58,0.00,,,0.00,0.000000,,2013-06-01 08:32:00,
2013-06-01 01:42:00,55.0,41.0,-100.00,SE,126,1.0,5.0,58,0.00,,,0.00,0.000000,,2013-06-01 08:42:00,
2013-06-01 01:52:00,55.0,41.0,-100.00,SE,126,1.0,5.0,58,0.00,,,0.00,0.000000,,2013-06-01 08:52:00,
2013-06-01 02:21:00,56.0,42.0,-100.00,ESE,121,0.0,6.0,60,0.00,,,-99.99,0.000000,,2013-06-01 09:21:00,
2013-06-01 02:33:00,56.0,42.0,-100.00,ESE,121,0.0,6.0,60,0.00,,,-99.99,0.000000,,2013-06-01 09:33:00,
2013-06-01 02:42:00,56.0,42.0,-100.00,ESE,121,0.0,6.0,60,0.00,,,-99.99,0.000000,,2013-06-01 09:42:00,
2013-06-01 02:53:00,56.0,42.0,-100.00,ESE,121,0.0,6.0,60,0.00,,,-99.99,0.000000,,2013-06-01 09:53:00,
2013-06-01 03:22:00,56.0,41.0,-100.00,ESE,121,0.0,6.0,58,0.00,,,0.00,0.000000,,2013-06-01 10:22:00,
2013-06-01 03:32:00,56.0,41.0,-100.00,ESE,121,0.0,6.0,58,0.00,,,0.00,0.000000,,2013-06-01 10:32:00,
2013-06-01 03:42:00,56.0,41.0,-100.00,ESE,121,0.0,6.0,58,0.00,,,0.00,0.000000,,2013-06-01 10:42:00,
2013-06-01 03:52:00,56.0,41.0,-100.00,ESE,121,0.0,6.0,58,0.00,,,0.00,0.000000,,2013-06-01 10:52:00,
2013-06-01 04:21:00,56.0,41.0,-100.00,SE,136,3.0,5.0,58,0.00,,,0.00,0.000000,,2013-06-01 11:21:00,
2013-06-01 04:32:00,56.0,41.0,-100.00,SE,136,3.0,5.0,58,0.00,,,0.00,0.000000,,2013-06-01 11:32:00,
2013-06-01 04:42:00,56.0,41.0,-100.00,SE,136,3.0,5.0,58,0.00,,,0.00,0.000000,,2013-06-01 11:42:00,
2013-06-01 04:52:00,56.0,41.0,-100.00,SE,136,3.0,5.0,58,0.00,,,0.00,0.000000,,2013-06-01 11:52:00,
2013-06-01 05:21:00,56.0,40.0,-100.00,SE,131,3.0,6.0,55,0.00,,,0.00,0.000000,,2013-06-01 12:21:00,
2013-06-01 05:32:00,56.0,40.0,-100.00,SE,131,3.0,6.0,55,0.00,,,0.00,0.000000,,2013-06-01 12:32:00,
2013-06-01 05:41:00,56.0,40.0,-100.00,SE,131,3.0,6.0,55,0.00,,,0.00,0.000000,,2013-06-01 12:41:00,
2013-06-01 05:52:00,56.0,40.0,-100.00,SE,131,3.0,6.0,55,0.00,,,0.00,0.000000,,2013-06-01 12:52:00,
2013-06-01 06:22:00,54.0,40.0,-100.00,ESE,123,0.0,6.0,60,0.00,,,0.00,2.000000,,2013-06-01 13:22:00,
2013-06-01 06:32:00,54.0,40.0,-100.00,ESE,123,0.0,6.0,60,0.00,,,0.00,2.000000,,2013-06-01 13:32:00,
2013-06-01 06:42:00,54.0,40.0,-100.00,ESE,123,0.0,6.0,60,0.00,,,0.00,2.000000,,2013-06-01 13:42:00,
2013-06-01 06:52:00,54.0,40.0,-100.00,ESE,123,0.0,6.0,60,0.00,,,0.00,2.000000,,2013-06-01 13:52:00,
2013-06-01 07:21:00,54.0,43.0,-100.00,ESE,117,0.0,5.0,67,0.00,,,0.00,21.000000,,2013-06-01 14:21:00,
2013-06-01 07:32:00,54.0,43.0,-100.00,ESE,117,0.0,5.0,67,0.00,,,0.00,21.000000,,2013-06-01 14:32:00,
2013-06-01 07:42:00,54.0,43.0,-100.00,ESE,117,0.0,5.0,67,0.00,,,0.00,21.000000,,2013-06-01 14:42:00,
2013-06-01 07:52:00,54.0,43.0,-100.00,ESE,117,0.0,5.0,67,0.00,,,0.00,21.000000,,2013-06-01 14:52:00,
2013-06-01 08:21:00,63.0,46.0,-100.00,SE,134,0.0,4.0,54,0.00,,,0.00,59.000000,,2013-06-01 15:21:00,
2013-06-01 08:33:00,63.0,46.0,-100.00,SE,134,0.0,4.0,54,0.00,,,0.00,59.000000,,2013-06-01 15:33:00,
2013-06-01 08:43:00,63.0,46.0,-100.00,SE,134,0.0,4.0,54,0.00,,,0.00,59.000000,,2013-06-01 15:43:00,
2013-06-01 08:53:00,63.0,46.0,-100.00,SE,134,0.0,4.0,54,0.00,,,0.00,59.000000,,2013-06-01 15:53:00,
2013-06-01 10:22:00,85.0,45.0,-100.00,WSW,240,2.0,3.0,25,0.00,,,0.00,863.000000,,2013-06-01 17:22:00,
2013-06-01 11:21:00,84.0,45.0,-100.00,WNW,297,0.0,5.0,26,-99.99,,,0.00,684.000000,,2013-06-01 18:21:00,
2013-06-01 11:32:00,84.0,45.0,-100.00,WNW,297,0.0,5.0,26,-99.99,,,0.00,684.000000,,2013-06-01 18:32:00,
2013-06-01 11:41:00,84.0,45.0,-100.00,WNW,297,0.0,5.0,26,-99.99,,,0.00,684.000000,,2013-06-01 18:41:00,
2013-06-01 11:51:00,84.0,45.0,-100.00,WNW,297,0.0,5.0,26,-99.99,,,0.00,684.000000,,2013-06-01 18:51:00,
2013-06-01 12:21:00,82.0,43.0,-100.00,West,281,2.0,7.0,25,-99.99,,,0.00,651.000000,,2013-06-01 19:21:00,
2013-06-01 12:32:00,82.0,43.0,-100.00,West,281,2.0,7.0,25,-99.99,,,0.00,651.000000,,2013-06-01 19:32:00,
2013-06-01 12:41:00,82.0,43.0,-100.00,West,281,2.0,7.0,25,-99.99,,,0.00,651.000000,,2013-06-01 19:41:00,
2013-06-01 12:52:00,82.0,43.0,-100.00,West,281,2.0,7.0,25,-99.99,,,0.00,651.000000,,2013-06-01 19:52:00,
2013-06-01 13:12:00,88.0,42.0,-100.00,WSW,256,3.0,6.0,20,0.00,,,0.00,1055.000000,,2013-06-01 20:12:00,
2013-06-01 13:21:00,88.0,42.0,-100.00,WSW,256,3.0,6.0,20,0.00,,,0.00,1055.000000,,2013-06-01 20:21:00,
2013-06-01 13:32:00,88.0,42.0,-100.00,WSW,256,3.0,6.0,20,0.00,,,0.00,1055.000000,,2013-06-01 20:32:00,
2013-06-01 13:41:00,88.0,42.0,-100.00,WSW,256,3.0,6.0,20,0.00,,,0.00,1055.000000,,2013-06-01 20:41:00,
2013-06-01 13:51:00,88.0,42.0,-100.00,WSW,256,3.0,6.0,20,0.00,,,0.00,1055.000000,,2013-06-01 20:51:00,
2013-06-01 14:21:00,90.0,45.0,-100.00,WSW,242,1.0,9.0,21,0.00,,,0.00,966.000000,,2013-06-01 21:21:00,
2013-06-01 14:33:00,90.0,45.0,-100.00,WSW,242,1.0,9.0,21,0.00,,,0.00,966.000000,,2013-06-01 21:33:00,
2013-06-01 14:42:00,90.0,45.0,-100.00,WSW,242,1.0,9.0,21,0.00,,,0.00,966.000000,,2013-06-01 21:42:00,
2013-06-01 14:53:00,90.0,45.0,-100.00,WSW,242,1.0,9.0,21,0.00,,,0.00,966.000000,,2013-06-01 21:53:00,
2013-06-01 15:42:00,91.0,43.0,-100.00,WSW,257,5.0,8.0,19,0.00,,,0.00,917.000000,,2013-06-01 22:42:00,
2013-06-01 15:53:00,91.0,43.0,-100.00,WSW,257,5.0,8.0,19,0.00,,,0.00,917.000000,,2013-06-01 22:53:00,
2013-06-01 16:21:00,91.0,43.0,-100.00,NW,313,0.0,11.0,19,0.00,,,0.00,645.000000,,2013-06-01 23:21:00,
2013-06-01 16:32:00,91.0,43.0,-100.00,NW,313,0.0,11.0,19,0.00,,,0.00,645.000000,,2013-06-01 23:32:00,
2013-06-01 16:42:00,91.0,43.0,-100.00,NW,313,0.0,11.0,19,0.00,,,0.00,645.000000,,2013-06-01 23:42:00,
2013-06-01 16:52:00,91.0,43.0,-100.00,NW,313,0.0,11.0,19,0.00,,,0.00,645.000000,,2013-06-01 23:52:00,
2013-06-01 17:21:00,89.0,43.0,-100.00,WNW,284,0.0,8.0,20,-99.99,,,0.00,528.000000,,2013-06-02 00:21:00,
2013-06-01 17:32:00,89.0,43.0,-100.00,WNW,284,0.0,8.0,20,-99.99,,,0.00,528.000000,,2013-06-02 00:32:00,
2013-06-01 17:41:00,89.0,43.0,-100.00,WNW,284,0.0,8.0,20,-99.99,,,0.00,528.000000,,2013-06-02 00:41:00,
2013-06-01 17:51:00,89.0,43.0,-100.00,WNW,284,0.0,8.0,20,-99.99,,,0.00,528.000000,,2013-06-02 00:51:00,
2013-06-01 18:21:00,86.0,44.0,-100.00,NW,320,0.0,7.0,23,0.00,,,0.00,312.000000,,2013-06-02 01:21:00,
2013-06-01 18:32:00,86.0,44.0,-100.00,NW,320,0.0,7.0,23,0.00,,,0.00,312.000000,,2013-06-02 01:32:00,
2013-06-01 18:41:00,86.0,44.0,-100.00,NW,320,0.0,7.0,23,0.00,,,0.00,312.000000,,2013-06-02 01:41:00,
2013-06-01 18:52:00,86.0,44.0,-100.00,NW,320,0.0,7.0,23,0.00,,,0.00,312.000000,,2013-06-02 01:52:00,
2013-06-01 19:21:00,81.0,44.0,-100.00,NW,314,0.0,6.0,27,0.00,,,0.00,208.000000,,2013-06-02 02:21:00,
2013-06-01 19:32:00,81.0,44.0,-100.00,NW,314,0.0,6.0,27,0.00,,,0.00,208.000000,,2013-06-02 02:32:00,
2013-06-01 19:41:00,81.0,44.0,-100.00,NW,314,0.0,6.0,27,0.00,,,0.00,208.000000,,2013-06-02 02:41:00,
2013-06-01 19:51:00,81.0,44.0,-100.00,NW,314,0.0,6.0,27,0.00,,,0.00,208.000000,,2013-06-02 02:51:00,
2013-06-01 20:21:00,72.0,46.0,-100.00,SE,126,0.0,5.0,39,0.00,,,0.00,50.000000,,2013-06-02 03:21:00,
2013-06-01 20:33:00,72.0,46.0,-100.00,SE,126,0.0,5.0,39,0.00,,,0.00,50.000000,,2013-06-02 03:33:00,
2013-06-01 20:43:00,72.0,46.0,-100.00,SE,126,0.0,5.0,39,0.00,,,0.00,50.000000,,2013-06-02 03:43:00,
2013-06-01 20:52:00,72.0,46.0,-100.00,SE,126,0.0,5.0,39,0.00,,,0.00,50.000000,,2013-06-02 03:52:00,
2013-06-01 21:23:00,66.0,42.0,-100.00,ESE,120,0.0,3.0,41,0.00,,,0.00,2.000000,,2013-06-02 04:23:00,
2013-06-01 21:33:00,66.0,42.0,-100.00,ESE,120,0.0,3.0,41,0.00,,,0.00,2.000000,,2013-06-02 04:33:00,
2013-06-01 21:42:00,66.0,42.0,-100.00,ESE,120,0.0,3.0,41,0.00,,,0.00,2.000000,,2013-06-02 04:42:00,
2013-06-01 21:52:00,66.0,42.0,-100.00,ESE,120,0.0,3.0,41,0.00,,,0.00,2.000000,,2013-06-02 04:52:00,
2013-06-01 22:22:00,65.0,33.0,-100.00,ESE,115,0.0,5.0,30,0.00,,,0.00,0.000000,,2013-06-02 05:22:00,
2013-06-01 22:32:00,65.0,33.0,-100.00,ESE,115,0.0,5.0,30,0.00,,,0.00,0.000000,,2013-06-02 05:32:00,
2013-06-01 22:42:00,65.0,33.0,-100.00,ESE,115,0.0,5.0,30,0.00,,,0.00,0.000000,,2013-06-02 05:42:00,
2013-06-01 22:52:00,65.0,33.0,-100.00,ESE,115,0.0,5.0,30,0.00,,,0.00,0.000000,,2013-06-02 05:52:00,
2013-06-01 23:21:00,64.0,32.0,-100.00,ESE,118,0.0,6.0,30,0.00,,,0.00,0.000000,,2013-06-02 06:21:00,
2013-06-01 23:32:00,64.0,32.0,-100.00,ESE,118,0.0,6.0,30,0.00,,,0.00,0.000000,,2013-06-02 06:32:00,
2013-06-01 23:41:00,64.0,32.0,-100.00,ESE,118,0.0,6.0,30,0.00,,,0.00,0.000000,,2013-06-02 06:41:00,
2013-06-01 23:52:00,64.0,32.0,-100.00,ESE,118,0.0,6.0,30,0.00,,,0.00,0.000000,,2013-06-02 06:52:00,